Вернуться в каталог

NOAA 16 DEB

АктивенPO
NORAD 41290·DEBRIS·🇺🇸 United States

Запущен Sep 21, 2000 с Vandenberg Space Force Base

Loading…

Ближайшие Пролёты (ближайшие 24 часа)

TLE

СвежийSource: Space-Track

Эпоха: Sep 14, 2026, 04:04 UTC

1 41290U 00055GS  26257.16958741  .00011719  00000-0  17108-2 0  9997
2 41290  98.9915 155.1559 0009342 167.2903 192.8540 14.75909722559864

Отслеживайте NOAA 16 DEB в реальном времени с AllMySat

Download on the App Store